Location: Karcze
(52.0945°N, 22.4786°E)
Time: 01:17:30
(UTC+00:00)

Abrixas rocket - Pass Details

Date: 14 July 2020
Orbit: 339 x 347 km, 48.4° (Epoch: 06 August)

Event Time Altitude Azimuth Distance (km) Brightness Sun altitude
Exits shadow 01:34:32 - 268° (W) 1,959 5.2 -6.6°
Reaches altitude 10° 01:36:28 10° 251° (WSW) 1,284 4.2 -6.4°
Maximum altitude 01:38:33 18° 204° (SSW) 914 3.4 -6.2°
Drops below altitude 10° 01:40:37 10° 158° (SSE) 1,279 4.5 -6.0°
Sets 01:42:59 0° 138° (SE) 2,115 5.8 -5.8°
